This demonstration page uses our WeatherBlox Daily Observations layout. Learn more.

Left ArrowRight Arrow

41.86663, -103.66717

Hourly Observations for August 2, 2021

Temp ( °F °C ) Dew Point ( °F °C ) Humidity (%) Winds ( mph kmh ) Pressure ( in mb ) Visibility ( mi km ) Precip ( " mm )
12:53 am 00:53 Clear 62 16.7 51 10.6 67 67 E 5 7 30.14 1021 7 11 N/A
1:53 am 01:53 Clear 61 16.1 52 11.1 72 72 E 9 15 30.13 1020 7 11 N/A
2:53 am 02:53 Clear 60 15.6 52 11.1 75 75 E 7 11 30.12 1020 7 11 N/A
3:53 am 03:53 Clear 60 15.6 51 10.6 72 72 N N/A 30.11 1020 7 11 N/A
4:53 am 04:53 Clear 59 15 51 10.6 75 75 NE 5 7 30.12 1020 7 11 N/A
5:53 am 05:53 Hazy 55 12.8 49 9.4 80 80 N 3 6 30.14 1021 6 10 N/A
6:53 am 06:53 Hazy 60 15.6 51 10.6 72 72 N 3 6 30.13 1020 6 10 N/A
7:53 am 07:53 Hazy 65 18.3 52 11.1 63 63 N N/A 30.14 1021 6 10 N/A
8:53 am 08:53 Hazy 71 21.7 54 12.2 55 55 NNW 3 6 30.14 1021 6 10 N/A
9:53 am 09:53 Hazy 76 24.4 54 12.2 47 47 WNW 5 7 30.12 1020 6 10 N/A
10:53 am 10:53 Hazy 82 27.8 55 12.8 40 40 VRB 5 7 30.09 1019 6 10 N/A
11:53 am 11:53 Sunny 87 30.6 44 6.7 22 22 E 7 11 30.07 1018 8 13 N/A
12:53 pm 12:53 Sunny 88 31.1 45 7.2 22 22 E 8 13 30.05 1018 8 13 N/A
1:53 pm 13:53 Sunny 90 32.2 47 8.3 23 23 E 9 15 30.02 1017 8 13 N/A
2:53 pm 14:53 Sunny 91 32.8 46 7.8 21 21 E 12 19 30.01 1016 8 13 N/A
3:53 pm 15:53 Sunny 92 33.3 48 8.9 22 22 E 10 17 29.98 1015 8 13 N/A
4:53 pm 16:53 Sunny 91 32.8 46 7.8 21 21 E 9 15 29.97 1015 8 13 N/A
5:53 pm 17:53 Sunny 90 32.2 48 8.9 24 24 E 9 15 29.96 1015 8 13 N/A
6:53 pm 18:53 Sunny 86 30 53 11.7 32 32 E 8 13 29.96 1015 7 11 N/A
7:53 pm 19:53 Sunny 79 26.1 55 12.8 44 44 E 6 9 29.97 1015 7 11 N/A
8:53 pm 20:53 Clear 73 22.8 54 12.2 51 51 ESE 3 6 29.97 1015 8 13 N/A
9:53 pm 21:53 Clear 70 21.1 54 12.2 57 57 N N/A 29.98 1015 7 11 N/A
10:53 pm 22:53 Clear 66 18.9 53 11.7 63 63 ENE 6 9 29.98 1015 8 13 N/A
11:53 pm 23:53 Clear 66 18.9 51 10.6 59 59 E 8 13 29.97 1015 9 14 N/A

Powered by AerisWeather